Change the Weather History Date:

Monday, July 1, 2013

  Actual Average Record
Temperature  
Mean Temperature 74 °F -  
Max Temperature 79 °F 80 °F 98 °F (1963)
Min Temperature 70 °F 56 °F 43 °F (1952)
Cooling Degree Days 10    
Growing Degree Days 24 (Base 50)    
Moisture  
Dew Point 71 °F    
Average Humidity 90    
Maximum Humidity 100    
Minimum Humidity 74    
Precipitation  
Precipitation 1.35 in - - ()
Sea Level Pressure  
Sea Level Pressure 30.43 in    
Wind  
Wind Speed 0 mph (South)    
Max Wind Speed 7 mph    
Max Gust Speed -    
Visibility 7 miles    
Events Rain , Thunderstorm    
Averages and records for this station are not official NWS values.
T = Trace of Precipitation, MM = Missing Value Source: NWS Daily Summary

Daily Weather History Graph

Daily Weather History Graph

Search for Another Location

Airport or City:

Trip Planner

Search our weather history database for the weather conditions in past years. The results will help you decide how hot, cold, wet, or windy it might be!

Date:

Astronomy

Jul. 01, 2013 Rise Set
Actual Time 5:11 AM EDT 8:28 PM EDT
Civil Twilight 4:36 AM EDT 9:03 PM EDT
Nautical Twilight 3:51 AM EDT 9:48 PM EDT
Astronomical Twilight 2:56 AM EDT 10:43 PM EDT
Moon 12:45 AM EDT (7/1) 2:35 PM EDT (7/1)
Length of Visible Light 16h 26m
Length of Day
15h 16m
Waning Crescent, 35% of the Moon is Illuminated
Jul 1
Waning Crescent
Jul 8
New
Jul 15
First Quarter
Jul 22
Full
Jul 29
Last Quarter

Hourly Weather History & Observations

Time (EDT) Temp. Dew Point Humidity Pressure Visibility Wind Dir Wind Speed Gust Speed Precip Events Conditions
12:15 AM 73.4 °F 69.8 °F 88% 29.94 in 10.0 mi Calm Calm - N/A   Mostly Cloudy
12:51 AM 73.9 °F 68.9 °F 84% 30.66 in 10.0 mi Calm Calm - N/A   Overcast
1:51 AM 73.9 °F 68.9 °F 84% 30.66 in 10.0 mi Calm Calm - N/A   Overcast
2:05 AM 73.4 °F 69.8 °F 88% 29.95 in 10.0 mi Variable 3.5 mph - N/A   Scattered Clouds
2:51 AM 72.9 °F 68.9 °F 87% 30.66 in 10.0 mi Calm Calm - N/A   Clear
3:51 AM 70.9 °F 68.0 °F 91% 30.66 in 10.0 mi Calm Calm - N/A   Clear
4:51 AM 70.0 °F 68.0 °F 93% 30.67 in 10.0 mi Calm Calm - N/A   Clear
5:51 AM 70.9 °F 68.9 °F 93% 30.69 in 10.0 mi Calm Calm - N/A   Scattered Clouds
6:51 AM 72.9 °F 70.0 °F 91% 30.71 in 10.0 mi Calm Calm - N/A   Mostly Cloudy
7:51 AM 74.8 °F 70.0 °F 85% 30.71 in 10.0 mi Calm Calm - N/A   Clear
8:51 AM 77.0 °F 70.0 °F 79% 30.73 in 10.0 mi Calm Calm - N/A   Mostly Cloudy
9:51 AM 77.0 °F 70.0 °F 79% 30.73 in 10.0 mi Calm Calm - N/A   Overcast
10:51 AM 77.0 °F 70.0 °F 79% 30.74 in 10.0 mi Calm Calm - N/A   Overcast
11:51 AM 79.0 °F 70.0 °F 74% 30.73 in 10.0 mi Calm Calm - N/A   Scattered Clouds
12:16 PM 78.8 °F 69.8 °F 74% 30.01 in 10.0 mi Calm Calm - N/A   Mostly Cloudy
12:24 PM 78.8 °F 71.6 °F 78% 30.01 in 4.0 mi Calm Calm - 0.00 in Rain Light Rain
12:51 PM 75.9 °F 72.0 °F 87% 30.72 in 0.8 mi Calm Calm - 0.06 in Rain Heavy Rain
12:55 PM 75.2 °F 71.6 °F 89% 30.01 in 7.0 mi Calm Calm - 0.02 in Rain Heavy Rain
1:06 PM 73.4 °F 71.6 °F 94% 30.03 in 7.0 mi WSW 5.8 mph - 0.27 in Rain Heavy Rain
1:16 PM 71.6 °F 69.8 °F 94% 30.03 in 7.0 mi Calm Calm - 0.57 in Rain Heavy Rain
1:27 PM 71.6 °F 69.8 °F 94% 30.03 in 7.0 mi Calm Calm - 0.62 in Rain , Thunderstorm Heavy Thunderstorms and Rain
1:41 PM 71.6 °F 69.8 °F 94% 30.02 in 7.0 mi Calm Calm - 0.69 in Rain Heavy Rain
1:51 PM 70.9 °F 68.9 °F 93% 30.75 in 3.0 mi Calm Calm - 0.71 in Rain Rain
2:51 PM 72.0 °F 70.9 °F 96% 30.75 in - Calm Calm - 0.16 in Rain Rain
2:58 PM 71.6 °F 71.6 °F 100% 30.03 in 1.8 mi Calm Calm - 0.03 in Rain Heavy Rain
3:51 PM 72.9 °F 70.9 °F 93% 30.74 in 4.0 mi Calm Calm - 0.12 in Rain Light Rain
3:58 PM 73.4 °F 71.6 °F 94% 30.02 in 3.0 mi Calm Calm - 0.01 in Rain Light Rain
4:51 PM 73.9 °F 72.0 °F 93% 30.74 in 5.0 mi Calm Calm - 0.02 in Rain Light Rain
5:51 PM 73.9 °F 72.0 °F 93% 30.74 in 5.0 mi Calm Calm - 0.00 in   Overcast
6:51 PM 73.9 °F 70.9 °F 90% 30.75 in 5.0 mi Calm Calm - 0.00 in   Overcast
7:51 PM 72.9 °F 70.9 °F 93% 30.77 in 2.0 mi South 3.5 mph - 0.06 in Rain Heavy Rain
7:53 PM 73.4 °F 71.6 °F 94% 30.05 in 0.8 mi Calm Calm - 0.03 in Rain Heavy Rain
8:00 PM 73.4 °F 71.6 °F 94% 30.04 in 1.2 mi Calm Calm - 0.13 in Rain Heavy Rain
8:37 PM 73.4 °F 71.6 °F 94% 30.05 in 2.0 mi Calm Calm - 0.14 in   Overcast
8:51 PM 72.9 °F 72.0 °F 97% 30.77 in 2.5 mi ESE 6.9 mph - 0.19 in Rain Light Rain
9:02 PM 73.4 °F 71.6 °F 94% 30.06 in 2.5 mi Calm Calm - 0.03 in Rain Light Rain
9:09 PM 73.4 °F 71.6 °F 94% 30.06 in 8.0 mi Calm Calm - 0.03 in Rain Light Rain
9:43 PM 73.4 °F 71.6 °F 94% 30.07 in 10.0 mi Calm Calm - 0.03 in   Mostly Cloudy
9:51 PM 72.9 °F 72.0 °F 97% 30.79 in 10.0 mi Calm Calm - 0.03 in   Scattered Clouds
10:51 PM 72.9 °F 72.0 °F 97% 30.80 in 10.0 mi Calm Calm - N/A   Overcast
11:15 PM 73.4 °F 71.6 °F 94% 30.07 in 10.0 mi Calm Calm - N/A   Mostly Cloudy
11:51 PM 72.9 °F 72.0 °F 97% 30.79 in 10.0 mi Calm Calm - N/A   Mostly Cloudy